Tracking 25686 objects as of 25-May-2022
HD Live streaming from Space Station
objects crossing your sky now

H-2A R/B

Track H-2A R/B now!


NORAD ID: 49337
Int'l Code: 2021-096B
Perigee: 250.3 km
Apogee: 35,349.4 km
Inclination: 32.2 °
Period: 623.3 minutes
Semi major axis: 24170 km
RCS: Unknown
Launch date: October 26, 2021
Source: Japan (JPN)
Launch site: TANEGASHIMA SPACE CENTER (TNSTA)

Note: This is a ROCKET BODY
aabbcc
Your satellite tracking list
Your tracking list is empty




NASA's NSSDC Master Catalog

Two Line Element Set (TLE):
1 49337U 21096B   22144.93132000  .00003435  00000-0  81076-3 0  9995
2 49337  32.2150  30.9139 7260633 294.5281   8.7452  2.31028025  4850
Source of the keplerian elements: AFSPC